#timestamp,LO_Frequency,Hit,StdDev 
1550764815.6,286047002.3,N
1550764835.4,286047001.6,N
1550764855.3,286047002.1,N
1550764875.1,286047004.0,N
1550764895.9,286047002.0,N
1550764915.7,286047004.2,N
1550764935.5,286047003.9,N
1550764955.4,286047003.9,N
1550764975.2,286047003.5,N
1550764995.0,286047004.1,N
1550764996.0,286047004.1,N
1550765015.8,286047003.5,N
1550765035.6,286047003.9,N
1550765055.5,286047003.8,N
1550765075.3,286047001.7,N
1550765095.1,286047003.8,N
1550765115.9,286047003.0,N
1550765135.7,286047004.2,N
1550765155.6,286047002.2,N
1550765175.4,286047001.6,N
1550765195.2,286047002.3,N
1550765215.1,286047002.2,N
1550765216.0,286047002.2,N
1550765235.8,286047001.3,N
1550765255.6,286047001.9,N
1550765275.5,286047000.0,N
1550765295.3,286046999.8,N
1550765315.2,286047000.2,N
1550765335.9,286047004.1,Y
1550765355.7,286047002.1,P
1550765375.6,286047002.3,P
1550765395.4,286047002.3,P
1550765415.2,286047000.3,N
1550765435.1,286047002.4,N
1550765436.0,286047002.4,Y
1550765455.8,286046999.6,P
1550765475.7,286046997.0,N
1550765495.5,286046998.9,N
1550765515.4,286047011.9,Y
1550765535.2,286047000.8,P
1550765555.0,286047000.7,N
1550765555.9,286047000.7,N
1550765575.8,286047000.7,N
1550765595.6,286047001.5,N
1550765615.4,286047002.5,Y
1550765635.3,286046998.4,P
1550765655.1,286046998.4,N
1550765675.9,286046999.8,N
1550765695.7,286046999.7,N
1550765715.5,286047001.0,N
1550765735.4,286047000.7,N
1550765755.2,286046998.3,N
1550765775.0,286046999.5,N
1550765775.9,286046999.5,N
1550765795.8,286046999.6,N
1550765815.6,286046999.2,N
1550765835.5,286046998.3,N
1550765855.3,286046996.5,Y
1550765875.1,286046997.3,P
1550765895.9,286046996.6,P
1550765915.7,286046995.7,P
1550765935.6,286046995.5,Y
1550765955.4,286046996.8,P
1550765975.2,286046997.5,P
1550765995.1,286046999.4,N
1550765996.0,286046999.4,N
1550766015.8,286047001.0,N
1550766035.7,286047000.6,N
1550766055.5,286047002.8,N
1550766075.3,286047001.7,N
1550766095.2,286047000.1,N
1550766115.0,286046999.8,N
1550766115.9,286046999.8,N
1550766135.7,286047000.5,N
1550766155.6,286047000.3,N
1550766175.4,286047000.9,N
1550766195.3,286047004.4,N
1550766215.1,286047001.5,N
1550766216.0,286047001.5,N
1550766235.8,286047001.4,N
1550766255.7,286046999.7,N
1550766275.5,286046999.9,N
1550766295.3,286046996.9,N
1550766315.2,286046997.9,N
1550766335.0,286046997.0,N
1550766335.9,286046997.0,N
1550766355.8,286046998.0,N
1550766375.6,286046997.6,N
1550766395.4,286046998.7,N
1550766415.3,286046998.4,N
1550766435.1,286046999.9,N
1550766455.9,286047000.6,N
1550766475.7,286047001.1,N
1550766495.5,286047000.3,N
1550766515.4,286047000.5,N
1550766535.2,286046999.9,N
1550766555.0,286046998.6,N
1550766555.9,286046998.6,N
1550766575.8,286046998.4,N
1550766595.6,286046998.7,N
1550766615.5,286047000.1,N
1550766635.3,286047000.0,N
1550766655.1,286047002.3,N
1550766675.9,286047002.0,N
1550766695.7,286047003.5,N
1550766715.5,286047004.1,N
1550766735.4,286047001.6,N
1550766755.2,286047000.7,N
1550766775.1,286046998.2,N
1550766776.0,286046998.2,N
1550766795.8,286046998.8,N
1550766815.6,286046999.1,N
1550766835.5,286046997.3,N
1550766855.3,286046997.8,N
1550766875.1,286046996.8,N
1550766895.9,286046995.0,N
1550766915.7,286046997.5,N
1550766935.6,286046995.7,N
1550766955.4,286046997.2,N
1550766975.2,286046999.5,N
1550766995.1,286047000.6,N
1550766996.0,286047000.6,N
1550767015.8,286047000.6,N
1550767035.7,286047000.6,N
1550767055.5,286046999.5,N
1550767075.3,286046997.5,N
1550767095.2,286046995.2,N
1550767115.0,286046996.6,N
1550767115.9,286046996.6,N
1550767135.7,286047000.4,N
1550767155.6,286046998.5,N
1550767175.4,286046998.8,N
1550767195.3,286046998.3,N
1550767215.1,286046998.6,N
1550767235.8,286046996.5,N
1550767255.7,286046998.8,N
1550767275.2,286047000.1,N
1550767295.0,286047000.5,N
1550767295.9,286047000.5,N
1550767315.8,286047000.8,N
1550767335.6,286046999.3,N
1550767355.4,286046999.2,N
1550767375.3,286047000.2,N
1550767395.1,286047001.3,N
1550767415.9,286047003.5,N
1550767435.7,286047003.4,N
1550767455.5,286047000.4,N
1550767475.4,286047000.0,N
1550767495.2,286046999.7,N
1550767515.0,286047000.4,N
1550767516.0,286047000.4,N
1550767535.8,286047000.9,N
1550767555.6,286047000.0,N
1550767575.5,286046998.1,N
1550767595.3,286047001.1,N
1550767615.1,286047000.1,N
1550767635.9,286047000.4,N
1550767655.7,286047000.0,N
1550767675.6,286046999.9,N
1550767695.4,286047002.0,N
1550767715.2,286047002.7,N
1550767735.1,286047000.6,N
1550767736.0,286047000.6,N
1550767755.8,286046998.4,N
1550767775.6,286046998.9,N
1550767795.5,286047001.0,N
1550767815.3,286047000.6,N
1550767835.2,286047001.0,N
1550767855.9,286047000.3,N
1550767875.7,286047000.3,N
1550767895.6,286046998.1,N
1550767915.4,286046998.1,N
1550767935.2,286046999.9,N
1550767955.1,286046999.8,N
1550767956.0,286046999.8,N
1550767975.8,286047001.0,N
1550767995.7,286046998.7,N
1550768015.5,286046999.5,N
1550768035.3,286046999.1,N
1550768055.2,286046998.9,N
1550768075.0,286047001.1,N
1550768075.9,286047001.1,N
1550768095.7,286047001.2,N
1550768115.6,286047000.1,N
1550768135.4,286047001.7,N
1550768155.3,286047003.9,Y
1550768175.1,286047004.3,P
1550768195.8,286047001.3,N
1550768215.7,286047001.8,N
1550768235.5,286047004.3,N
1550768255.3,286047004.6,N
1550768275.2,286047007.4,Y
1550768295.0,286047003.5,P
1550768295.9,286047003.5,P
1550768315.8,286047000.0,N
1550768335.6,286046999.9,N
1550768355.4,286047000.5,N
1550768375.3,286047000.1,N
1550768395.1,286046999.8,N
